Regional Weather Roundup
Issued by NWS

Home | Current Version | Previous Version | Text Only | Print | Product List | Glossary Off
Versions: 1 2 3 4 5 6 7 8 9 10 11 12 13 14 15 16 17 18 19 20 21 22 23 24 25 26 27 28 29 30 31 32 33 34 35 36 37 38 39 40 41 42 43 44 45 46 47 48 49 50

000
ASUS43 KLSX 240407
RWRMO

WEATHER SUMMARY FOR MISSOURI
NATIONAL WEATHER SERVICE SPRINGFIELD MO
1100 PM CDT SAT MAY 23 2015

NOTE: "FAIR" INDICATES FEW OR NO CLOUDS BELOW 12,000 FEET WITH NO
       SIGNIFICANT WEATHER AND/OR OBSTRUCTIONS TO VISIBILITY.
       CURRENT SKY AND/OR WEATHER CONDITIONS ARE NOT AVAILABLE FOR
       CHILLICOTHE AND FARMINGTON.

MOZ001>031-035>038-043-044-053-054-240500-
...NORTHERN AND WESTERN MISSOURI...

CITY           SKY/WX    TMP DP  RH WIND       PRES   REMARKS
KANSAS CTY INT RAIN      61  60  97 E13       30.04F
KANSAS C DTWN  RAIN      62  59  90 E9        30.04S
LEE`S SUMMIT   RAIN      62  60  93 E8        30.05S
ST JOSEPH      LGT RAIN  61  59  93 E10       30.04F
CHILLICOTHE      N/A     66  58  75 SE3       30.09F
KIRKSVILLE     CLOUDY    66  54  65 E3        30.11F

$$
MOZ066>068-077>081-088>096-101>105-240500-
...SOUTHWEST MISSOURI...

CITY           SKY/WX    TMP DP  RH WIND       PRES   REMARKS
SPRINGFIELD    CLOUDY    68  58  70 SE23      30.03R
JOPLIN         RAIN      67  64  90 SE13      29.99R FOG

$$
MOZ032>034-039>042-045>050-055>058-069>072-240500-
...CENTRAL MISSOURI...

CITY           SKY/WX    TMP DP  RH WIND       PRES   REMARKS
COLUMBIA       CLOUDY    66  54  65 SE8       30.10F
JEFFERSON CITY CLOUDY    68  52  56 E7        30.09F
ROLLA          CLOUDY    64  52  64 SE8       30.10F
SEDALIA        LGT RAIN  63  58  83 SE9       30.08R
OSAGE BEACH    CLOUDY    66  52  59 SE8       30.08S

$$
MOZ051-052-059>065-240500-
...EAST CENTRAL MISSOURI...

CITY           SKY/WX    TMP DP  RH WIND       PRES   REMARKS
ST LOUIS INTL  CLOUDY    69  50  50 E8        30.14F
SPIRIT OF STL  CLOUDY    63  53  70 CALM      30.13F
ST CHARLES     MOCLDY    65  53  65 E8        30.13F

$$
MOZ072>076-082>087-097>100-106>115-240500-
...SOUTH CENTRAL AND SOUTHEAST MISSOURI...

CITY           SKY/WX    TMP DP  RH WIND       PRES   REMARKS
CAPE GIRARDEAU PTCLDY    64  57  78 E7        30.15F
FARMINGTON     MOCLDY    66  54  63 SE7       30.18F
POPLAR BLUFF   CLOUDY    68  58  70 E5        30.13F
WEST PLAINS    MOCLDY    66  54  65 SE5       30.13S

$$


USA.gov is the U.S. government's official web portal to all federal, state and local government web resources and services.